Year,Month,Day,Hour,Minute,Value (Times are PST for insolation in W/m^2)
2018,01,27,00,00,0.00
2018,01,27,00,01,0.00
2018,01,27,00,02,0.00
2018,01,27,00,03,0.00
2018,01,27,00,04,0.00
2018,01,27,00,05,0.00
2018,01,27,00,06,0.00
2018,01,27,00,07,0.00
2018,01,27,00,08,0.00
2018,01,27,00,09,0.00
2018,01,27,00,10,0.00
2018,01,27,00,11,0.00
2018,01,27,00,12,0.00
2018,01,27,00,13,0.00
2018,01,27,00,14,0.00
2018,01,27,00,15,0.00
2018,01,27,00,16,0.00
2018,01,27,00,17,0.00
2018,01,27,00,18,0.00
2018,01,27,00,19,0.00
2018,01,27,00,20,0.00
2018,01,27,00,21,0.00
2018,01,27,00,22,0.00
2018,01,27,00,23,0.00
2018,01,27,00,24,0.00
2018,01,27,00,25,0.00
2018,01,27,00,26,0.00
2018,01,27,00,27,0.00
2018,01,27,00,28,0.00
2018,01,27,00,29,0.00
2018,01,27,00,30,0.00
2018,01,27,00,31,0.00
2018,01,27,00,32,0.00
2018,01,27,00,33,0.00
2018,01,27,00,34,0.00
2018,01,27,00,35,0.00
2018,01,27,00,36,0.00
2018,01,27,00,37,0.00
2018,01,27,00,38,0.00
2018,01,27,00,39,0.00
2018,01,27,00,40,0.00
2018,01,27,00,41,0.00
2018,01,27,00,42,0.00
2018,01,27,00,43,0.00
2018,01,27,00,44,0.00
2018,01,27,00,45,0.00
2018,01,27,00,46,0.00
2018,01,27,00,47,0.00
2018,01,27,00,48,0.00
2018,01,27,00,49,0.00
2018,01,27,00,50,0.00
2018,01,27,00,51,0.00
2018,01,27,00,52,0.00
2018,01,27,00,53,0.00
2018,01,27,00,54,0.00
2018,01,27,00,55,0.00
2018,01,27,00,56,0.00
2018,01,27,00,57,0.00
2018,01,27,00,58,0.00
2018,01,27,00,59,0.00
2018,01,27,01,00,0.00
2018,01,27,01,01,0.00
2018,01,27,01,02,0.00
2018,01,27,01,03,0.00
2018,01,27,01,04,0.00
2018,01,27,01,05,0.00
2018,01,27,01,06,0.00
2018,01,27,01,07,0.00
2018,01,27,01,08,0.00
2018,01,27,01,09,0.00
2018,01,27,01,10,0.00
2018,01,27,01,11,0.00
2018,01,27,01,12,0.00
2018,01,27,01,13,0.00
2018,01,27,01,14,0.00
2018,01,27,01,15,0.00
2018,01,27,01,16,0.00
2018,01,27,01,17,0.00
2018,01,27,01,18,0.00
2018,01,27,01,19,0.00
2018,01,27,01,20,0.00
2018,01,27,01,21,0.00
2018,01,27,01,22,0.00
2018,01,27,01,23,0.00
2018,01,27,01,24,0.00
2018,01,27,01,25,0.00
2018,01,27,01,26,0.00
2018,01,27,01,27,0.00
2018,01,27,01,28,0.00
2018,01,27,01,29,0.00
2018,01,27,01,30,0.00
2018,01,27,01,31,0.00
2018,01,27,01,32,0.00
2018,01,27,01,33,0.00
2018,01,27,01,34,0.00
2018,01,27,01,35,0.00
2018,01,27,01,36,0.00
2018,01,27,01,37,0.00
2018,01,27,01,38,0.00
2018,01,27,01,39,0.00
2018,01,27,01,40,0.00
2018,01,27,01,41,0.00
2018,01,27,01,42,0.00
2018,01,27,01,43,0.00
2018,01,27,01,44,0.00
2018,01,27,01,45,0.00
2018,01,27,01,46,0.00
2018,01,27,01,47,0.00
2018,01,27,01,48,0.00
2018,01,27,01,49,0.00
2018,01,27,01,50,0.00
2018,01,27,01,51,0.00
2018,01,27,01,52,0.00
2018,01,27,01,53,0.00
2018,01,27,01,54,0.00
2018,01,27,01,55,0.00
2018,01,27,01,56,0.00
2018,01,27,01,57,0.00
2018,01,27,01,58,0.00
2018,01,27,01,59,0.00
2018,01,27,02,00,0.00
2018,01,27,02,01,0.00
2018,01,27,02,02,0.00
2018,01,27,02,03,0.00
2018,01,27,02,04,0.00
2018,01,27,02,05,0.00
2018,01,27,02,06,0.00
2018,01,27,02,07,0.00
2018,01,27,02,08,0.00
2018,01,27,02,09,0.00
2018,01,27,02,10,0.00
2018,01,27,02,11,0.00
2018,01,27,02,12,0.00
2018,01,27,02,13,0.00
2018,01,27,02,14,0.00
2018,01,27,02,15,0.00
2018,01,27,02,16,0.00
2018,01,27,02,17,0.00
2018,01,27,02,18,0.00
2018,01,27,02,19,0.00
2018,01,27,02,20,0.00
2018,01,27,02,21,0.00
2018,01,27,02,22,0.00
2018,01,27,02,23,0.00
2018,01,27,02,24,0.00
2018,01,27,02,25,0.00
2018,01,27,02,26,0.00
2018,01,27,02,27,0.00
2018,01,27,02,28,0.00
2018,01,27,02,29,0.00
2018,01,27,02,30,0.00
2018,01,27,02,31,0.00
2018,01,27,02,32,0.00
2018,01,27,02,33,0.00
2018,01,27,02,34,0.00
2018,01,27,02,35,0.00
2018,01,27,02,36,0.00
2018,01,27,02,37,0.00
2018,01,27,02,38,0.00
2018,01,27,02,39,0.00
2018,01,27,02,40,0.00
2018,01,27,02,41,0.00
2018,01,27,02,42,0.00
2018,01,27,02,43,0.00
2018,01,27,02,44,0.00
2018,01,27,02,45,0.00
2018,01,27,02,46,0.00
2018,01,27,02,47,0.00
2018,01,27,02,48,0.00
2018,01,27,02,49,0.00
2018,01,27,02,50,0.00
2018,01,27,02,51,0.00
2018,01,27,02,52,0.00
2018,01,27,02,53,0.00
2018,01,27,02,54,0.00
2018,01,27,02,55,0.00
2018,01,27,02,56,0.00
2018,01,27,02,57,0.00
2018,01,27,02,58,0.00
2018,01,27,02,59,0.00
2018,01,27,03,00,0.00
2018,01,27,03,01,0.00
2018,01,27,03,02,0.00
2018,01,27,03,03,0.00
2018,01,27,03,04,0.00
2018,01,27,03,05,0.00
2018,01,27,03,06,0.00
2018,01,27,03,07,0.00
2018,01,27,03,08,0.00
2018,01,27,03,09,0.00
2018,01,27,03,10,0.00
2018,01,27,03,11,0.00
2018,01,27,03,12,0.00
2018,01,27,03,13,0.00
2018,01,27,03,14,0.00
2018,01,27,03,15,0.00
2018,01,27,03,16,0.00
2018,01,27,03,17,0.00
2018,01,27,03,18,0.00
2018,01,27,03,19,0.00
2018,01,27,03,20,0.00
2018,01,27,03,21,0.00
2018,01,27,03,22,0.00
2018,01,27,03,23,0.00
2018,01,27,03,24,0.00
2018,01,27,03,25,0.00
2018,01,27,03,26,0.00
2018,01,27,03,27,0.00
2018,01,27,03,28,0.00
2018,01,27,03,29,0.00
2018,01,27,03,30,0.00
2018,01,27,03,31,0.00
2018,01,27,03,32,0.00
2018,01,27,03,33,0.00
2018,01,27,03,34,0.00
2018,01,27,03,35,0.00
2018,01,27,03,36,0.00
2018,01,27,03,37,0.00
2018,01,27,03,38,0.00
2018,01,27,03,39,0.00
2018,01,27,03,40,0.00
2018,01,27,03,41,0.00
2018,01,27,03,42,0.00
2018,01,27,03,43,0.00
2018,01,27,03,44,0.00
2018,01,27,03,45,0.00
2018,01,27,03,46,0.00
2018,01,27,03,47,0.00
2018,01,27,03,48,0.00
2018,01,27,03,49,0.00
2018,01,27,03,50,0.00
2018,01,27,03,51,0.00
2018,01,27,03,52,0.00
2018,01,27,03,53,0.00
2018,01,27,03,54,0.00
2018,01,27,03,55,0.00
2018,01,27,03,56,0.00
2018,01,27,03,57,0.00
2018,01,27,03,58,0.00
2018,01,27,03,59,0.00
2018,01,27,04,00,0.00
2018,01,27,04,01,0.00
2018,01,27,04,02,0.00
2018,01,27,04,03,0.00
2018,01,27,04,04,0.00
2018,01,27,04,05,0.00
2018,01,27,04,06,0.00
2018,01,27,04,07,0.00
2018,01,27,04,08,0.00
2018,01,27,04,09,0.00
2018,01,27,04,10,0.00
2018,01,27,04,11,0.00
2018,01,27,04,12,0.00
2018,01,27,04,13,0.00
2018,01,27,04,14,0.00
2018,01,27,04,15,0.00
2018,01,27,04,16,0.00
2018,01,27,04,17,0.00
2018,01,27,04,18,0.00
2018,01,27,04,19,0.00
2018,01,27,04,20,0.00
2018,01,27,04,21,0.00
2018,01,27,04,22,0.00
2018,01,27,04,23,0.00
2018,01,27,04,24,0.00
2018,01,27,04,25,0.00
2018,01,27,04,26,0.00
2018,01,27,04,27,0.00
2018,01,27,04,28,0.00
2018,01,27,04,29,0.00
2018,01,27,04,30,0.00
2018,01,27,04,31,0.00
2018,01,27,04,32,0.00
2018,01,27,04,33,0.00
2018,01,27,04,34,0.00
2018,01,27,04,35,0.00
2018,01,27,04,36,0.00
2018,01,27,04,37,0.00
2018,01,27,04,38,0.00
2018,01,27,04,39,0.00
2018,01,27,04,40,0.00
2018,01,27,04,41,0.00
2018,01,27,04,42,0.00
2018,01,27,04,43,0.00
2018,01,27,04,44,0.00
2018,01,27,04,45,0.00
2018,01,27,04,46,0.00
2018,01,27,04,47,0.00
2018,01,27,04,48,0.00
2018,01,27,04,49,0.00
2018,01,27,04,50,0.00
2018,01,27,04,51,0.00
2018,01,27,04,52,0.00
2018,01,27,04,53,0.00
2018,01,27,04,54,0.00
2018,01,27,04,55,0.00
2018,01,27,04,56,0.00
2018,01,27,04,57,0.00
2018,01,27,04,58,0.00
2018,01,27,04,59,0.00
2018,01,27,05,00,0.00
2018,01,27,05,01,0.00
2018,01,27,05,02,0.00
2018,01,27,05,03,0.00
2018,01,27,05,04,0.00
2018,01,27,05,05,0.00
2018,01,27,05,06,0.00
2018,01,27,05,07,0.00
2018,01,27,05,08,0.00
2018,01,27,05,09,0.00
2018,01,27,05,10,0.00
2018,01,27,05,11,0.00
2018,01,27,05,12,0.00
2018,01,27,05,13,0.00
2018,01,27,05,14,0.00
2018,01,27,05,15,0.00
2018,01,27,05,16,0.00
2018,01,27,05,17,0.00
2018,01,27,05,18,0.00
2018,01,27,05,19,0.00
2018,01,27,05,20,0.00
2018,01,27,05,21,0.00
2018,01,27,05,22,0.00
2018,01,27,05,23,0.00
2018,01,27,05,24,0.00
2018,01,27,05,25,0.00
2018,01,27,05,26,0.00
2018,01,27,05,27,0.00
2018,01,27,05,28,0.00
2018,01,27,05,29,0.00
2018,01,27,05,30,0.00
2018,01,27,05,31,0.00
2018,01,27,05,32,0.00
2018,01,27,05,33,0.00
2018,01,27,05,34,0.00
2018,01,27,05,35,0.00
2018,01,27,05,36,0.00
2018,01,27,05,37,0.00
2018,01,27,05,38,0.00
2018,01,27,05,39,0.00
2018,01,27,05,40,0.00
2018,01,27,05,41,0.00
2018,01,27,05,42,0.00
2018,01,27,05,43,0.00
2018,01,27,05,44,0.00
2018,01,27,05,45,0.00
2018,01,27,05,46,0.00
2018,01,27,05,47,0.00
2018,01,27,05,48,0.00
2018,01,27,05,49,0.00
2018,01,27,05,50,0.00
2018,01,27,05,51,0.00
2018,01,27,05,52,0.00
2018,01,27,05,53,0.00
2018,01,27,05,54,0.00
2018,01,27,05,55,0.00
2018,01,27,05,56,0.00
2018,01,27,05,57,0.00
2018,01,27,05,58,0.00
2018,01,27,05,59,0.00
2018,01,27,06,00,0.00
2018,01,27,06,01,0.00
2018,01,27,06,02,0.00
2018,01,27,06,03,0.00
2018,01,27,06,04,0.00
2018,01,27,06,05,0.00
2018,01,27,06,06,0.00
2018,01,27,06,07,0.00
2018,01,27,06,08,0.00
2018,01,27,06,09,0.00
2018,01,27,06,10,0.00
2018,01,27,06,11,0.00
2018,01,27,06,12,0.00
2018,01,27,06,13,0.00
2018,01,27,06,14,0.00
2018,01,27,06,15,0.00
2018,01,27,06,16,0.00
2018,01,27,06,17,0.00
2018,01,27,06,18,0.00
2018,01,27,06,19,0.00
2018,01,27,06,20,0.00
2018,01,27,06,21,0.00
2018,01,27,06,22,0.00
2018,01,27,06,23,0.00
2018,01,27,06,24,0.00
2018,01,27,06,25,0.00
2018,01,27,06,26,0.00
2018,01,27,06,27,0.00
2018,01,27,06,28,0.00
2018,01,27,06,29,0.00
2018,01,27,06,30,0.00
2018,01,27,06,31,0.00
2018,01,27,06,32,0.00
2018,01,27,06,33,0.00
2018,01,27,06,34,0.00
2018,01,27,06,35,0.00
2018,01,27,06,36,0.00
2018,01,27,06,37,0.00
2018,01,27,06,38,0.00
2018,01,27,06,39,0.00
2018,01,27,06,40,0.00
2018,01,27,06,41,0.00
2018,01,27,06,42,0.00
2018,01,27,06,43,0.00
2018,01,27,06,44,0.00
2018,01,27,06,45,0.00
2018,01,27,06,46,0.00
2018,01,27,06,47,0.00
2018,01,27,06,48,0.00
2018,01,27,06,49,0.00
2018,01,27,06,50,0.00
2018,01,27,06,51,0.00
2018,01,27,06,52,0.00
2018,01,27,06,53,0.00
2018,01,27,06,54,0.00
2018,01,27,06,55,0.00
2018,01,27,06,56,0.00
2018,01,27,06,57,0.00
2018,01,27,06,58,0.00
2018,01,27,06,59,0.00
2018,01,27,07,00,0.00
2018,01,27,07,01,0.00
2018,01,27,07,02,0.00
2018,01,27,07,03,0.00
2018,01,27,07,04,0.00
2018,01,27,07,05,0.00
2018,01,27,07,06,0.00
2018,01,27,07,07,0.00
2018,01,27,07,08,0.00
2018,01,27,07,09,0.00
2018,01,27,07,10,0.00
2018,01,27,07,11,0.00
2018,01,27,07,12,0.00
2018,01,27,07,13,0.00
2018,01,27,07,14,0.00
2018,01,27,07,15,0.00
2018,01,27,07,16,0.00
2018,01,27,07,17,0.00
2018,01,27,07,18,0.00
2018,01,27,07,19,0.00
2018,01,27,07,20,0.00
2018,01,27,07,21,0.00
2018,01,27,07,22,0.00
2018,01,27,07,23,0.00
2018,01,27,07,24,0.00
2018,01,27,07,25,0.00
2018,01,27,07,26,0.00
2018,01,27,07,27,0.00
2018,01,27,07,28,0.00
2018,01,27,07,29,0.00
2018,01,27,07,30,0.00
2018,01,27,07,31,0.00
2018,01,27,07,32,0.00
2018,01,27,07,33,0.00
2018,01,27,07,34,0.00
2018,01,27,07,35,0.00
2018,01,27,07,36,0.00
2018,01,27,07,37,0.00
2018,01,27,07,38,0.00
2018,01,27,07,39,0.00
2018,01,27,07,40,0.00
2018,01,27,07,41,0.00
2018,01,27,07,42,0.00
2018,01,27,07,43,0.00
2018,01,27,07,44,0.00
2018,01,27,07,45,0.00
2018,01,27,07,46,0.00
2018,01,27,07,47,0.00
2018,01,27,07,48,0.00
2018,01,27,07,49,0.00
2018,01,27,07,50,0.00
2018,01,27,07,51,0.00
2018,01,27,07,52,0.00
2018,01,27,07,53,0.00
2018,01,27,07,54,0.00
2018,01,27,07,55,0.00
2018,01,27,07,56,0.00
2018,01,27,07,57,0.00
2018,01,27,07,58,0.00
2018,01,27,07,59,0.00
2018,01,27,08,00,0.00
2018,01,27,08,01,0.00
2018,01,27,08,02,0.00
2018,01,27,08,03,0.00
2018,01,27,08,04,0.00
2018,01,27,08,05,0.00
2018,01,27,08,06,0.00
2018,01,27,08,07,0.00
2018,01,27,08,08,0.00
2018,01,27,08,09,0.00
2018,01,27,08,10,0.00
2018,01,27,08,11,0.00
2018,01,27,08,12,0.00
2018,01,27,08,13,0.00
2018,01,27,08,14,0.00
2018,01,27,08,15,0.00
2018,01,27,08,16,0.00
2018,01,27,08,17,0.00
2018,01,27,08,18,0.00
2018,01,27,08,19,0.00
2018,01,27,08,20,0.00
2018,01,27,08,21,0.00
2018,01,27,08,22,0.00
2018,01,27,08,23,0.00
2018,01,27,08,24,0.00
2018,01,27,08,25,1.90
2018,01,27,08,26,5.00
2018,01,27,08,27,5.00
2018,01,27,08,28,5.00
2018,01,27,08,29,5.00
2018,01,27,08,30,5.00
2018,01,27,08,31,5.50
2018,01,27,08,32,7.00
2018,01,27,08,33,7.00
2018,01,27,08,34,8.20
2018,01,27,08,35,9.00
2018,01,27,08,36,9.00
2018,01,27,08,37,11.00
2018,01,27,08,38,11.20
2018,01,27,08,39,12.00
2018,01,27,08,40,12.00
2018,01,27,08,41,12.00
2018,01,27,08,42,13.50
2018,01,27,08,43,14.00
2018,01,27,08,44,14.00
2018,01,27,08,45,14.40
2018,01,27,08,46,16.00
2018,01,27,08,47,16.00
2018,01,27,08,48,16.00
2018,01,27,08,49,17.40
2018,01,27,08,50,18.00
2018,01,27,08,51,18.00
2018,01,27,08,52,18.00
2018,01,27,08,53,18.40
2018,01,27,08,54,19.00
2018,01,27,08,55,19.00
2018,01,27,08,56,20.40
2018,01,27,08,57,21.00
2018,01,27,08,58,21.20
2018,01,27,08,59,23.00
2018,01,27,09,00,23.00
2018,01,27,09,01,24.00
2018,01,27,09,02,25.00
2018,01,27,09,03,25.70
2018,01,27,09,04,26.00
2018,01,27,09,05,25.90
2018,01,27,09,06,25.00
2018,01,27,09,07,25.40
2018,01,27,09,08,26.00
2018,01,27,09,09,26.00
2018,01,27,09,10,26.00
2018,01,27,09,11,26.00
2018,01,27,09,12,25.00
2018,01,27,09,13,25.20
2018,01,27,09,14,26.00
2018,01,27,09,15,27.00
2018,01,27,09,16,29.20
2018,01,27,09,17,31.50
2018,01,27,09,18,32.90
2018,01,27,09,19,35.10
2018,01,27,09,20,37.40
2018,01,27,09,21,39.00
2018,01,27,09,22,39.00
2018,01,27,09,23,39.00
2018,01,27,09,24,39.70
2018,01,27,09,25,40.00
2018,01,27,09,26,40.40
2018,01,27,09,27,44.40
2018,01,27,09,28,46.40
2018,01,27,09,29,48.00
2018,01,27,09,30,51.40
2018,01,27,09,31,53.70
2018,01,27,09,32,54.00
2018,01,27,09,33,54.10
2018,01,27,09,34,56.00
2018,01,27,09,35,56.00
2018,01,27,09,36,56.00
2018,01,27,09,37,56.00
2018,01,27,09,38,54.50
2018,01,27,09,39,54.00
2018,01,27,09,40,54.20
2018,01,27,09,41,56.00
2018,01,27,09,42,56.70
2018,01,27,09,43,58.00
2018,01,27,09,44,58.00
2018,01,27,09,45,58.00
2018,01,27,09,46,59.70
2018,01,27,09,47,60.20
2018,01,27,09,48,62.00
2018,01,27,09,49,62.30
2018,01,27,09,50,63.00
2018,01,27,09,51,63.00
2018,01,27,09,52,63.00
2018,01,27,09,53,63.00
2018,01,27,09,54,65.10
2018,01,27,09,55,67.40
2018,01,27,09,56,69.30
2018,01,27,09,57,71.00
2018,01,27,09,58,72.00
2018,01,27,09,59,73.50
2018,01,27,10,00,74.00
2018,01,27,10,01,76.00
2018,01,27,10,02,77.40
2018,01,27,10,03,79.00
2018,01,27,10,04,78.00
2018,01,27,10,05,77.00
2018,01,27,10,06,77.00
2018,01,27,10,07,78.70
2018,01,27,10,08,81.10
2018,01,27,10,09,83.00
2018,01,27,10,10,83.30
2018,01,27,10,11,84.00
2018,01,27,10,12,85.20
2018,01,27,10,13,86.00
2018,01,27,10,14,87.70
2018,01,27,10,15,90.90
2018,01,27,10,16,91.40
2018,01,27,10,17,93.00
2018,01,27,10,18,93.00
2018,01,27,10,19,94.20
2018,01,27,10,20,96.40
2018,01,27,10,21,97.00
2018,01,27,10,22,98.00
2018,01,27,10,23,98.00
2018,01,27,10,24,98.00
2018,01,27,10,25,97.50
2018,01,27,10,26,95.70
2018,01,27,10,27,91.30
2018,01,27,10,28,84.90
2018,01,27,10,29,82.80
2018,01,27,10,30,81.40
2018,01,27,10,31,83.00
2018,01,27,10,32,84.40
2018,01,27,10,33,86.00
2018,01,27,10,34,92.70
2018,01,27,10,35,97.60
2018,01,27,10,36,105.20
2018,01,27,10,37,112.10
2018,01,27,10,38,117.80
2018,01,27,10,39,122.90
2018,01,27,10,40,128.10
2018,01,27,10,41,130.00
2018,01,27,10,42,128.30
2018,01,27,10,43,129.90
2018,01,27,10,44,130.40
2018,01,27,10,45,132.00
2018,01,27,10,46,132.00
2018,01,27,10,47,130.80
2018,01,27,10,48,128.60
2018,01,27,10,49,125.40
2018,01,27,10,50,120.60
2018,01,27,10,51,112.90
2018,01,27,10,52,107.30
2018,01,27,10,53,103.10
2018,01,27,10,54,100.80
2018,01,27,10,55,97.90
2018,01,27,10,56,95.30
2018,01,27,10,57,100.10
2018,01,27,10,58,104.70
2018,01,27,10,59,109.50
2018,01,27,11,00,119.10
2018,01,27,11,01,126.80
2018,01,27,11,02,127.30
2018,01,27,11,03,123.60
2018,01,27,11,04,123.00
2018,01,27,11,05,123.40
2018,01,27,11,06,125.70
2018,01,27,11,07,127.50
2018,01,27,11,08,128.00
2018,01,27,11,09,131.00
2018,01,27,11,10,139.70
2018,01,27,11,11,148.30
2018,01,27,11,12,153.00
2018,01,27,11,13,151.70
2018,01,27,11,14,149.00
2018,01,27,11,15,149.00
2018,01,27,11,16,149.00
2018,01,27,11,17,146.40
2018,01,27,11,18,141.90
2018,01,27,11,19,141.00
2018,01,27,11,20,142.10
2018,01,27,11,21,145.90
2018,01,27,11,22,149.80
2018,01,27,11,23,152.50
2018,01,27,11,24,151.30
2018,01,27,11,25,153.30
2018,01,27,11,26,156.00
2018,01,27,11,27,155.70
2018,01,27,11,28,154.00
2018,01,27,11,29,150.00
2018,01,27,11,30,145.00
2018,01,27,11,31,141.40
2018,01,27,11,32,136.90
2018,01,27,11,33,134.30
2018,01,27,11,34,131.30
2018,01,27,11,35,128.60
2018,01,27,11,36,124.60
2018,01,27,11,37,121.50
2018,01,27,11,38,121.00
2018,01,27,11,39,120.90
2018,01,27,11,40,119.60
2018,01,27,11,41,117.30
2018,01,27,11,42,115.00
2018,01,27,11,43,114.00
2018,01,27,11,44,114.00
2018,01,27,11,45,115.70
2018,01,27,11,46,116.00
2018,01,27,11,47,116.00
2018,01,27,11,48,116.70
2018,01,27,11,49,117.10
2018,01,27,11,50,116.00
2018,01,27,11,51,114.60
2018,01,27,11,52,113.10
2018,01,27,11,53,110.90
2018,01,27,11,54,108.60
2018,01,27,11,55,106.00
2018,01,27,11,56,104.00
2018,01,27,11,57,102.80
2018,01,27,11,58,99.00
2018,01,27,11,59,95.40
2018,01,27,12,00,89.50
2018,01,27,12,01,83.80
2018,01,27,12,02,83.00
2018,01,27,12,03,83.50
2018,01,27,12,04,85.20
2018,01,27,12,05,86.00
2018,01,27,12,06,89.40
2018,01,27,12,07,91.40
2018,01,27,12,08,95.70
2018,01,27,12,09,100.20
2018,01,27,12,10,105.40
2018,01,27,12,11,109.40
2018,01,27,12,12,113.20
2018,01,27,12,13,120.00
2018,01,27,12,14,127.80
2018,01,27,12,15,135.10
2018,01,27,12,16,141.60
2018,01,27,12,17,148.40
2018,01,27,12,18,153.40
2018,01,27,12,19,158.50
2018,01,27,12,20,162.60
2018,01,27,12,21,165.10
2018,01,27,12,22,167.40
2018,01,27,12,23,169.70
2018,01,27,12,24,171.00
2018,01,27,12,25,171.00
2018,01,27,12,26,171.00
2018,01,27,12,27,171.00
2018,01,27,12,28,170.80
2018,01,27,12,29,169.00
2018,01,27,12,30,169.00
2018,01,27,12,31,169.00
2018,01,27,12,32,170.20
2018,01,27,12,33,171.70
2018,01,27,12,34,173.70
2018,01,27,12,35,174.40
2018,01,27,12,36,179.00
2018,01,27,12,37,179.70
2018,01,27,12,38,183.20
2018,01,27,12,39,190.10
2018,01,27,12,40,197.20
2018,01,27,12,41,205.00
2018,01,27,12,42,219.80
2018,01,27,12,43,263.10
2018,01,27,12,44,316.00
2018,01,27,12,45,316.00
2018,01,27,12,46,316.00
2018,01,27,12,47,416.70
2018,01,27,12,48,387.30
2018,01,27,12,49,404.40
2018,01,27,12,50,379.60
2018,01,27,12,51,380.90
2018,01,27,12,52,376.40
2018,01,27,12,53,440.00
2018,01,27,12,54,453.00
2018,01,27,12,55,440.10
2018,01,27,12,56,474.80
2018,01,27,12,57,498.20
2018,01,27,12,58,517.00
2018,01,27,12,59,497.00
2018,01,27,13,00,358.90
2018,01,27,13,01,274.60
2018,01,27,13,02,276.40
2018,01,27,13,03,260.60
2018,01,27,13,04,244.00
2018,01,27,13,05,188.00
2018,01,27,13,06,256.00
2018,01,27,13,07,364.70
2018,01,27,13,08,416.20
2018,01,27,13,09,431.00
2018,01,27,13,10,320.30
2018,01,27,13,11,284.40
2018,01,27,13,12,181.00
2018,01,27,13,13,212.80
2018,01,27,13,14,255.70
2018,01,27,13,15,276.20
2018,01,27,13,16,242.20
2018,01,27,13,17,205.30
2018,01,27,13,18,175.90
2018,01,27,13,19,151.00
2018,01,27,13,20,133.00
2018,01,27,13,21,125.00
2018,01,27,13,22,119.50
2018,01,27,13,23,114.60
2018,01,27,13,24,111.30
2018,01,27,13,25,115.60
2018,01,27,13,26,125.30
2018,01,27,13,27,142.40
2018,01,27,13,28,164.30
2018,01,27,13,29,181.10
2018,01,27,13,30,191.00
2018,01,27,13,31,205.50
2018,01,27,13,32,232.90
2018,01,27,13,33,243.30
2018,01,27,13,34,256.00
2018,01,27,13,35,246.10
2018,01,27,13,36,219.90
2018,01,27,13,37,255.90
2018,01,27,13,38,343.10
2018,01,27,13,39,430.60
2018,01,27,13,40,403.70
2018,01,27,13,41,368.40
2018,01,27,13,42,371.40
2018,01,27,13,43,389.40
2018,01,27,13,44,334.60
2018,01,27,13,45,324.40
2018,01,27,13,46,255.80
2018,01,27,13,47,229.70
2018,01,27,13,48,179.20
2018,01,27,13,49,152.50
2018,01,27,13,50,143.20
2018,01,27,13,51,145.40
2018,01,27,13,52,136.30
2018,01,27,13,53,95.40
2018,01,27,13,54,97.00
2018,01,27,13,55,109.10
2018,01,27,13,56,101.10
2018,01,27,13,57,92.10
2018,01,27,13,58,94.30
2018,01,27,13,59,86.30
2018,01,27,14,00,86.40
2018,01,27,14,01,86.50
2018,01,27,14,02,80.60
2018,01,27,14,03,69.90
2018,01,27,14,04,62.80
2018,01,27,14,05,62.00
2018,01,27,14,06,68.60
2018,01,27,14,07,82.10
2018,01,27,14,08,87.90
2018,01,27,14,09,88.60
2018,01,27,14,10,89.00
2018,01,27,14,11,97.70
2018,01,27,14,12,113.60
2018,01,27,14,13,106.40
2018,01,27,14,14,101.10
2018,01,27,14,15,100.20
2018,01,27,14,16,110.50
2018,01,27,14,17,115.00
2018,01,27,14,18,108.80
2018,01,27,14,19,101.20
2018,01,27,14,20,104.60
2018,01,27,14,21,108.60
2018,01,27,14,22,108.40
2018,01,27,14,23,112.30
2018,01,27,14,24,114.00
2018,01,27,14,25,116.80
2018,01,27,14,26,116.40
2018,01,27,14,27,110.90
2018,01,27,14,28,106.40
2018,01,27,14,29,103.30
2018,01,27,14,30,102.00
2018,01,27,14,31,103.20
2018,01,27,14,32,104.00
2018,01,27,14,33,104.90
2018,01,27,14,34,106.70
2018,01,27,14,35,105.00
2018,01,27,14,36,99.80
2018,01,27,14,37,87.10
2018,01,27,14,38,78.90
2018,01,27,14,39,73.00
2018,01,27,14,40,70.30
2018,01,27,14,41,70.00
2018,01,27,14,42,69.80
2018,01,27,14,43,69.00
2018,01,27,14,44,68.00
2018,01,27,14,45,65.80
2018,01,27,14,46,66.50
2018,01,27,14,47,65.30
2018,01,27,14,48,64.90
2018,01,27,14,49,62.80
2018,01,27,14,50,62.00
2018,01,27,14,51,62.00
2018,01,27,14,52,62.60
2018,01,27,14,53,63.00
2018,01,27,14,54,63.00
2018,01,27,14,55,65.20
2018,01,27,14,56,67.40
2018,01,27,14,57,70.00
2018,01,27,14,58,73.00
2018,01,27,14,59,72.80
2018,01,27,15,00,69.90
2018,01,27,15,01,69.00
2018,01,27,15,02,70.50
2018,01,27,15,03,78.30
2018,01,27,15,04,84.70
2018,01,27,15,05,90.40
2018,01,27,15,06,93.00
2018,01,27,15,07,91.60
2018,01,27,15,08,90.10
2018,01,27,15,09,96.90
2018,01,27,15,10,98.00
2018,01,27,15,11,98.00
2018,01,27,15,12,98.00
2018,01,27,15,13,97.40
2018,01,27,15,14,97.00
2018,01,27,15,15,93.60
2018,01,27,15,16,93.20
2018,01,27,15,17,95.70
2018,01,27,15,18,98.00
2018,01,27,15,19,99.00
2018,01,27,15,20,100.00
2018,01,27,15,21,101.50
2018,01,27,15,22,102.00
2018,01,27,15,23,103.90
2018,01,27,15,24,103.60
2018,01,27,15,25,101.30
2018,01,27,15,26,96.60
2018,01,27,15,27,91.20
2018,01,27,15,28,85.80
2018,01,27,15,29,79.70
2018,01,27,15,30,73.90
2018,01,27,15,31,70.00
2018,01,27,15,32,70.00
2018,01,27,15,33,70.00
2018,01,27,15,34,70.00
2018,01,27,15,35,70.00
2018,01,27,15,36,69.10
2018,01,27,15,37,67.30
2018,01,27,15,38,71.60
2018,01,27,15,39,77.70
2018,01,27,15,40,77.50
2018,01,27,15,41,73.60
2018,01,27,15,42,70.60
2018,01,27,15,43,69.10
2018,01,27,15,44,70.00
2018,01,27,15,45,70.00
2018,01,27,15,46,70.00
2018,01,27,15,47,70.00
2018,01,27,15,48,71.20
2018,01,27,15,49,72.00
2018,01,27,15,50,72.00
2018,01,27,15,51,70.10
2018,01,27,15,52,69.80
2018,01,27,15,53,69.00
2018,01,27,15,54,68.00
2018,01,27,15,55,65.80
2018,01,27,15,56,65.00
2018,01,27,15,57,63.40
2018,01,27,15,58,61.70
2018,01,27,15,59,56.90
2018,01,27,16,00,52.30
2018,01,27,16,01,49.20
2018,01,27,16,02,46.40
2018,01,27,16,03,46.00
2018,01,27,16,04,46.80
2018,01,27,16,05,51.20
2018,01,27,16,06,57.30
2018,01,27,16,07,63.00
2018,01,27,16,08,66.90
2018,01,27,16,09,69.00
2018,01,27,16,10,67.50
2018,01,27,16,11,65.30
2018,01,27,16,12,67.00
2018,01,27,16,13,67.00
2018,01,27,16,14,65.70
2018,01,27,16,15,62.50
2018,01,27,16,16,62.00
2018,01,27,16,17,60.60
2018,01,27,16,18,60.00
2018,01,27,16,19,61.90
2018,01,27,16,20,62.00
2018,01,27,16,21,62.00
2018,01,27,16,22,62.00
2018,01,27,16,23,60.80
2018,01,27,16,24,60.00
2018,01,27,16,25,58.40
2018,01,27,16,26,57.90
2018,01,27,16,27,56.00
2018,01,27,16,28,55.30
2018,01,27,16,29,54.00
2018,01,27,16,30,53.40
2018,01,27,16,31,50.20
2018,01,27,16,32,47.30
2018,01,27,16,33,44.00
2018,01,27,16,34,42.00
2018,01,27,16,35,41.30
2018,01,27,16,36,40.00
2018,01,27,16,37,39.40
2018,01,27,16,38,37.60
2018,01,27,16,39,35.30
2018,01,27,16,40,33.00
2018,01,27,16,41,31.60
2018,01,27,16,42,29.30
2018,01,27,16,43,27.00
2018,01,27,16,44,26.00
2018,01,27,16,45,23.90
2018,01,27,16,46,21.30
2018,01,27,16,47,18.10
2018,01,27,16,48,17.60
2018,01,27,16,49,16.00
2018,01,27,16,50,16.00
2018,01,27,16,51,14.80
2018,01,27,16,52,14.00
2018,01,27,16,53,14.00
2018,01,27,16,54,13.80
2018,01,27,16,55,12.00
2018,01,27,16,56,11.70
2018,01,27,16,57,10.00
2018,01,27,16,58,9.00
2018,01,27,16,59,9.00
2018,01,27,17,00,7.30
2018,01,27,17,01,7.00
2018,01,27,17,02,7.00
2018,01,27,17,03,6.30
2018,01,27,17,04,5.00
2018,01,27,17,05,5.00
2018,01,27,17,06,5.00
2018,01,27,17,07,5.00
2018,01,27,17,08,0.20
2018,01,27,17,09,0.00
2018,01,27,17,10,0.00
2018,01,27,17,11,0.00
2018,01,27,17,12,0.00
2018,01,27,17,13,0.00
2018,01,27,17,14,0.00
2018,01,27,17,15,0.00
2018,01,27,17,16,0.00
2018,01,27,17,17,0.00
2018,01,27,17,18,0.00
2018,01,27,17,19,0.00
2018,01,27,17,20,0.00
2018,01,27,17,21,0.00
2018,01,27,17,22,0.00
2018,01,27,17,23,0.00
2018,01,27,17,24,0.00
2018,01,27,17,25,0.00
2018,01,27,17,26,0.00
2018,01,27,17,27,0.00
2018,01,27,17,28,0.00
2018,01,27,17,29,0.00
2018,01,27,17,30,0.00
2018,01,27,17,31,0.00
2018,01,27,17,32,0.00
2018,01,27,17,33,0.00
2018,01,27,17,34,0.00